Regional Weather Roundup
Issued by NWS

Home | Current Version | Previous Version | Text Only | Print | Product List | Glossary Off
Versions: 1 2 3 4 5 6 7 8 9 10 11 12 13 14 15 16 17 18 19 20 21 22 23 24 25 26 27 28 29 30 31 32 33 34 35 36 37 38 39 40 41 42 43 44 45 46 47 48 49 50

974
ASUS45 KTFX 231610
RWRMT
MONTANA REGIONAL WEATHER ROUNDUP
NATIONAL WEATHER SERVICE GREAT FALLS MT
1000 AM MDT SAT SEP 23 2017

NOTE: "FAIR" INDICATES FEW OR NO CLOUDS BELOW 12000 FEET WITH NO
SIGNIFICANT WEATHER AND/OR OBSTRUCTIONS TO VISIBILITY.

MTZ001>007-043-231700-
WEST OF THE DIVIDE

CITY           SKY/WX    TMP DP  RH WIND       PRES   REMARKS
KALISPELL      PTSUNNY   45  37  73 CALM      30.08S
MISSOULA       PTSUNNY   39  36  89 SE6       30.13S
BUTTE          CLOUDY    36  31  82 CALM      30.08S
MULLAN PASS    CLOUDY    34  30  85 CALM      30.06R
ANACONDA         N/A     37  30  75 E3        30.08S
DEER LODGE       N/A     36  30  80 CALM      30.12R
EUREKA           N/A     45  34  65 CALM      30.07R
HAMILTON         N/A     39  34  81 CALM      30.12R
LIBBY            N/A     43  39  87 CALM      30.07R
$$

MTZ008-052>055-231700-
SOUTHWEST MONTANA

CITY           SKY/WX    TMP DP  RH WIND       PRES   REMARKS
BOZEMAN        CLOUDY    40  36  86 N5        30.10R
DILLON         CLOUDY    39  32  76 CALM      30.07S
W YELLOWSTONE  SUNNY     36  28  75 MISG      30.05S
ENNIS          CLOUDY    36  34  93 N5        30.12S
THREE FORKS      N/A     40  36  86 CALM      30.08S
$$

MTZ009-010-012-014-046-048-049-054-231700-
EAST SLOPES AND CENTRAL MONTANA

CITY           SKY/WX    TMP DP  RH WIND       PRES   REMARKS
CUT BANK       PTSUNNY   36  36 100 SE8       30.06R WCI  30
GREAT FALLS    MOSUNNY   40  35  83 SE3       30.08S
MALMSTROM AFB  MOSUNNY   41  37  85 S6        30.09S
HELENA         CLOUDY    39  35  86 W3        30.10R
BOWMANS CRNR     N/A     36  35  93 S14       30.05R WCI  27
CHOTEAU          N/A     36  36 100 SE7       30.08S WCI  30
FAIRFIELD      CLOUDY    34  33  96 S6        30.07S WCI  29
POWER          PTSUNNY   36  35  98 SE7       30.07S WCI  30
RAYNESFORD     PTSUNNY   40  36  86 SE6       30.09R
ULM              N/A     38  37  96 S5        30.09S
$$

MTZ011-013-016-021-045-047-050-051-231700-
NORTH CENTRAL MONTANA

CITY           SKY/WX    TMP DP  RH WIND       PRES   REMARKS
HAVRE          CLOUDY    44  38  79 CALM      30.12R
LEWISTOWN      CLOUDY    37  36  96 SE9       30.09F WCI  30
N BAR RANCH    CLOUDY    36  36 100 S3        30.13R
CHINOOK          N/A     45  39  81 E6        30.13R
DENTON           N/A     40  37  90 S8        30.07S
GEYSER         CLOUDY    38  36  91 CALM      30.09R
JUDITH GAP     PTSUNNY   36  35  99 SE9       30.08F WCI  29
WINIFRED       PTSUNNY   39  37  93 SE10      30.09S
$$

MTZ017>020-022>027-061-062-231700-
NORTHEAST MONTANA

CITY           SKY/WX    TMP DP  RH WIND       PRES   REMARKS
GLASGOW        CLOUDY    46  39  76 SE8       30.15R
JORDAN           N/A     45  39  79 SE5       30.12F
SIDNEY         CLOUDY    48  41  76 NE8       30.13F
WOLF POINT     CLOUDY    45  39  79 CALM      30.16S
MALTA          PTSUNNY   45  41  87 CALM      30.14S
PLENTYWOOD       N/A     45  41  87 CALM      30.15R
POPLAR           N/A     46  39  76 CALM      30.15F
SCOBEY           N/A     43  38  82 CALM      30.12
$$

MTZ028>42-056>058-231700-
SOUTHCENTRAL AND SOUTHEAST MONTANA

CITY           SKY/WX    TMP DP  RH WIND       PRES   REMARKS
BAKER          LGT RAIN  42  40  92 E7        30.13R
BILLINGS       LGT RAIN  40  38  93 NE5       30.10S
LIVINGSTON     CLOUDY    38  32  79 S3        30.09S
MILES CITY     CLOUDY    45  36  70 NE9       30.13R
BIG TIMBER     CLOUDY    36  36 100 CALM      30.13S
EKALAKA          N/A     40  36  86 E7        30.08
HARLOWTON      PTSUNNY   37  35  93 MISG      30.10S
LAUREL           N/A     41  39  93 NE3       30.11R
$$

REGIONAL REPORTS...DAKOTAS

CITY           SKY/WX    TMP DP  RH WIND       PRES   REMARKS
WILLISTON      CLOUDY    48  42  80 NE3       30.16R
MINOT          CLOUDY    51  43  74 NW12      30.12F
DICKINSON      CLOUDY    47  41  80 NE9       30.11R
BEACH          CLOUDY    43  39  87 NE5       30.17R
CROSBY         PTSUNNY   48  45  87 N7        30.14S
TIOGA          CLOUDY    46  45  93 N8        30.15R
WATFORD CITY   CLOUDY    46  43  87 N5        30.14R
BISMARCK       CLOUDY    50  47  89 N5        30.12R
GRAND FORKS    CLOUDY    56  49  77 N15       30.04R
FARGO          CLOUDY    53  50  89 N14       30.02F
BUFFALO SD       N/A     45  40  82 NE8       30.05S
RAPID CITY     CLOUDY    45  43  93 N15       30.08R
$$

REGIONAL REPORTS...WYOMING/IDAHO/WASHINGTON

CITY           SKY/WX    TMP DP  RH WIND       PRES   REMARKS
GILLETTE       LGT RAIN  41  39  93 NE3       30.06S
SHERIDAN       CLOUDY    43  41  93 N8        30.07R
BUFFALO WY     CLOUDY    41  37  86 E7        30.06R
CODY           CLOUDY    36  36 100 NE7       30.09R FOG     WCI  30
IDAHO FALLS    MOSUNNY   39  34  82 N5        30.06S
SALMON         CLOUDY    41  32  70 CALM      30.09S
BOISE          SUNNY     45  40  82 W3        30.07R
SPOKANE        PTSUNNY   47  41  80 S5        30.08R
$$

REGIONAL REPORTS...ALBERTA

CITY           SKY/WX    TMP DP  RH WIND       PRES   REMARKS
EDMONTON       SUNNY     45  39  81 S8        30.06S
CALGARY        PTSUNNY   39  34  81 S8        30.05R
LETHBRIDGE     LGT RAIN  43  36  75 SE6       30.05S
MEDICINE HAT   LGT RAIN  43  37  81 VRB2      30.10R
$$

REGIONAL REPORTS...SASKATCHEWAN

CITY           SKY/WX    TMP DP  RH WIND       PRES   REMARKS
SWIFT CURRENT    N/A     46  34  61 S8        30.11S
REGINA         CLOUDY    45  39  81 W3        30.15R
SASKATOON      CLOUDY    46  41  81 CALM      30.14S
$$




USA.gov is the U.S. government's official web portal to all federal, state and local government web resources and services.